Regional Weather Roundup
Issued by NWS

Home | Current Version | Previous Version | Graphics & Text | Print | Product List | Glossary On
Versions: 1 2 3 4 5 6 7 8 9 10 11 12 13 14 15 16 17 18 19 20 21 22 23 24 25 26 27 28 29 30 31 32 33 34 35 36 37 38 39 40 41 42 43 44 45 46 47 48 49 50
000
ASUS43 KFSD 100210
RWRSD

WEATHER ROUNDUP FOR SOUTH DAKOTA
NATIONAL WEATHER SERVICE SIOUX FALLS SD
800 PM CST FRI DEC 09 2016

NOTE: "FAIR" INDICATES FEW OR NO CLOUDS BELOW 12,000 FEET WITH NO
SIGNIFICANT WEATHER AND/OR OBSTRUCTIONS TO VISIBILITY.


SDZ001>005-009-010-012>017-100300-
NORTHWEST AND NORTH CENTRAL SOUTH DAKOTA

CITY           SKY/WX    TMP DP  RH WIND       PRES   REMARKS
BUFFALO          N/A     -5 -10  79 E9        30.25S WCI -22
FAITH            N/A     -7 -10  87 E6        30.40F WCI -20
MOBRIDGE       CLOUDY    -4 -11  72 NW6       30.49S WCI -16
$$

SDZ012>016-024>037-041>051-057-063-072>074-100300-
SOUTHWEST AND SOUTH CENTRAL SOUTH DAKOTA

CITY           SKY/WX    TMP DP  RH WIND       PRES   REMARKS
RAPID CTY ARPT CLOUDY     1  -4  79 E9        30.32F WCI -14
PIERRE         CLOUDY    -2  -7  79 NE12      30.49F WCI -20
CUSTER         CLOUDY     1  -5  75 E5        30.05F WCI  -9
ELLSWORTH AFB  CLOUDY     1  -4  80 SE7       30.30F WCI -12
PHILIP         CLOUDY     2  -3  80 NE10      30.45F WCI -14
PINE RIDGE     CLOUDY     3   0  87 E8        30.30F WCI -10
SPEARFISH      FAIR      -2  -6  84 E5        30.21F WCI -12
WINNER         LGT SNOW   9   5  84 N9        30.45R FOG     WCI  -4
$$

SDZ004>011-016>023-039-040-100300-
NORTHEAST SOUTH DAKOTA

CITY           SKY/WX    TMP DP  RH WIND       PRES   REMARKS
ABERDEEN       CLEAR     -1  -9  68 N9        30.55S WCI -16
WATERTOWN      CLOUDY     1  -3  83 N3        30.47S
BROOKINGS      FLURRIES   6   1  80 N6        30.47S WCI  -4
SISSETON         N/A      0  -5  79 NW8       30.54S WCI -14
$$

SDZ017-020-022-023-036>040-048>070-100300-
SOUTHEAST SOUTH DAKOTA

CITY           SKY/WX    TMP DP  RH WIND       PRES   REMARKS
SIOUX FALLS    LGT SNOW  13  10  88 N5        30.48F FOG     WCI   5
HURON          FLURRIES   5   1  83 N3        30.54S
CHAMBERLAIN    CLOUDY     8   4  83 NE7       30.49S WCI  -4
MITCHELL       CLOUDY     7   3  84 N12       30.53F WCI  -8
YANKTON        CLOUDY    14   9  79 NE5       30.48F WCI   6
$$

ABBREVIATIONS USED IN REMARKS
   TC - TEMPERATURE IN CELSIUS
  WCI - WIND CHILL INDEX
   HX - HEAT INDEX
  VSB - VISIBILITY





USA.gov is the U.S. government's official web portal to all federal, state and local government web resources and services.